Probability
21 25 32 35 35 34 33 32 31 31 30 27 20 13 6 2 1 0 1 3 4 3 1 0 0 0 0 0 0 0 0 0 0 0 0 0 0 0 0 0 0 0 0
22 24 29 32 34 34 32 30 30 30 27 22 15 9 4 2 1 0 1 2 3 3 1 0 0 0 0 0 0 0 0 0 0 0 0 0 0 0 0 0 0 0 0
24 23 25 29 31 30 28 26 25 24 20 14 9 5 2 1 0 0 0 1 1 1 1 0 0 0 0 0 0 0 0 0 0 0 0 0 0 0 0 0 0 0 0
18 19 21 23 23 21 19 18 17 15 12 8 6 3 0 0 0 0 0 0 0 0 0 0 0 0 0 0 0 0 0 0 0 0 0 0 0 0 0 0 0 0 0
8 10 12 13 12 11 11 11 11 10 8 6 4 2 0 0 0 0 0 0 0 0 0 0 0 0 0 0 0 0 0 0 0 0 0 0 0 0 0 0 0 0 0
2 3 4 4 4 4 5 6 7 7 5 3 2 1 0 0 0 0 0 0 0 0 0 0 0 0 0 0 0 0 0 0 0 0 0 0 0 0 0 0 0 0 0
0 0 1 1 1 1 1 3 3 3 2 1 0 0 0 0 0 0 0 0 0 0 0 0 0 0 0 0 0 0 0 0 0 0 0 0 0 0 0 0 0 0 0
0 0 0 0 0 0 0 1 1 1 1 0 0 0 0 0 0 0 0 0 0 0 0 0 0 0 0 0 0 0 0 0 0 0 0 0 0 0 0 0 0 0 0
0 0 0 0 0 0 0 0 0 0 0 0 0 0 0 0 0 0 0 0 0 0 0 0 0 0 0 0 0 0 0 0 0 0 0 0 0 0 0 0 0 0 0
0 0 0 0 0 0 0 0 0 0 0 0 0 0 0 0 0 0 0 0 0 0 0 0 0 0 0 0 0 0 0 0 0 0 0 0 0 0 0 0 0 0 0
0 0 0 0 0 0 0 0 0 0 0 0 0 0 0 0 0 0 0 0 0 0 0 0 0 0 0 0 0 0 0 0 0 0 0 0 0 0 0 0 0 0 0
0 0 0 0 0 0 0 0 0 0 0 0 0 0 0 0 0 0 0 0 0 0 0 0 0 0 0 0 0 0 0 0 0 0 0 0 0 0 0 0 0 0 0
0 0 0 0 0 0 0 0 0 0 0 0 0 0 0 0 0 0 0 0 0 0 0 0 0 0 0 0 0 0 0 0 0 0 0 0 0 0 0 0 0 0 0
0 0 0 0 0 0 0 0 0 0 0 0 0 0 0 0 0 0 0 0 0 0 0 0 0 0 0 0 0 0 0 0 0 0 0 0 0 0 0 0 0 0 0
0 0 0 0 0 0 0 0 0 0 0 0 0 0 0 0 0 0 0 0 0 0 0 0 0 0 0 0 0 0 0 0 0 0 0 0 0 0 0 0 0 0 0
0 0 0 0 0 0 0 0 0 0 0 0 0 0 0 0 0 0 0 0 0 0 0 0 0 0 0 0 0 0 0 0 0 0 0 0 0 0 0 0 0 0 0
0 0 0 0 0 0 0 0 0 0 0 0 0 0 0 0 0 0 0 0 0 0 0 0 0 0 0 0 0 0 0 0 0 0 0 0 0 0 0 0 0 0 0
0 0 0 0 0 0 0 0 0 0 0 0 0 0 0 0 0 0 0 0 0 0 0 0 0 0 0 0 0 0 0 0 0 0 0 0 0 0 0 0 0 0 0
0 0 0 0 0 0 0 0 0 0 0 0 0 0 0 0 0 0 0 0 0 0 0 0 0 0 0 0 0 0 0 0 0 0 0 0 0 0 0 0 0 0 0
0 0 0 0 0 0 0 0 0 0 0 0 0 0 0 0 0 0 0 0 0 0 0 0 0 0 0 0 0 0 0 0 0 0 0 0 0 0 0 0 0 0 0
0 0 0 0 0 0 0 0 0 0 0 0 0 0 0 0 0 0 0 0 0 0 0 0 0 0 0 0 0 0 0 0 0 0 0 0 0 0 0 0 0 0 0
0 0 0 0 0 0 0 0 0 0 0 0 0 0 0 0 0 0 0 0 0 0 0 0 0 0 0 0 0 0 0 0 0 0 0 0 0 0 0 0 0 0 0
0 0 0 0 0 0 0 0 0 0 0 0 0 0 0 0 0 0 0 0 0 0 0 0 0 0 0 0 0 0 0 0 0 0 0 0 0 0 0 0 0 0 0
0 0 0 0 0 0 0 0 0 0 0 0 0 0 0 0 0 0 0 0 0 0 0 0 0 0 0 0 0 0 0 0 0 0 0 0 0 0 0 0 0 0 0
0 0 0 0 0 0 0 0 0 0 0 0 0 0 0 0 0 0 0 0 0 0 0 0 0 0 0 0 0 0 0 0 0 0 0 0 0 0 0 0 0 0 0
0 0 0 0 0 0 0 0 0 0 0 0 0 0 0 0 0 0 0 0 0 0 0 0 0 0 0 0 0 0 0 0 0 0 0 0 0 0 0 0 0 0 0
Wind_Speed
4 5 4 4 5 5 5 5 5 6 5 3 3 3 3 3 3 4 5 5 4 4 4 4 4 4 3 3 3 3 4 3 2 2 2 2 4 4 4 4 4 6 6
7 7 7 7 7 7 6 6 5 5 6 4 3 3 4 4 4 4 6 6 6 6 5 6 5 5 4 5 4 2 2 2 2 1 1 1 1 3 4 4 4 5 5
9 8 8 8 8 7 6 5 5 6 6 6 5 5 5 3 3 5 5 7 7 8 8 8 7 6 5 4 4 3 3 2 2 3 1 2 2 1 2 4 5 5 5
10 10 10 9 9 8 6 6 6 5 5 5 6 7 5 5 5 5 6 8 9 10 10 9 8 8 6 6 5 5 4 3 2 3 4 3 2 1 1 2 4 5 6
10 10 10 9 9 8 6 6 6 7 6 6 7 8 7 8 8 8 9 9 9 10 11 10 9 9 7 8 8 8 8 5 4 3 2 3 4 4 2 1 2 3 4
10 10 10 10 10 9 8 7 8 8 7 8 8 9 11 12 11 10 9 8 7 8 11 10 9 9 8 8 8 9 10 8 8 7 5 4 3 3 3 2 2 2 3
9 9 10 10 10 11 10 8 9 10 9 10 10 9 11 12 12 10 10 8 7 7 9 9 9 8 8 9 8 9 10 9 10 8 6 6 5 3 2 2 2 2 2
8 9 9 9 9 10 10 10 11 11 10 11 11 11 11 9 9 10 9 9 8 8 8 9 10 10 9 9 8 8 8 8 8 9 7 6 5 5 3 2 1 2 2
9 9 9 9 10 10 11 11 12 12 11 12 13 13 12 12 12 12 11 9 8 9 9 10 10 10 9 9 8 8 8 8 8 7 7 6 5 5 4 3 2 2 1
9 9 9 9 9 10 10 12 12 12 12 12 12 12 13 13 12 11 12 11 10 9 10 10 10 9 9 8 8 7 7 8 7 5 7 6 4 5 5 4 4 3 2
9 8 8 9 10 10 10 11 12 12 12 13 13 14 13 12 12 11 11 10 10 10 10 9 9 9 8 7 7 7 7 8 7 6 6 6 5 4 4 4 4 4 2
9 9 9 10 10 10 10 11 11 12 12 12 13 13 12 11 11 11 10 9 10 9 9 8 8 8 8 7 7 7 7 6 6 5 5 5 4 5 3 3 3 2 2
10 9 9 9 10 10 10 11 11 11 11 11 12 12 11 10 10 9 8 8 9 8 8 8 8 8 7 7 6 6 5 5 4 4 4 3 4 4 3 2 2 2 1
10 10 9 9 9 9 10 10 10 10 10 10 11 10 9 8 8 8 8 8 8 8 7 7 7 7 6 6 5 5 5 4 4 3 3 2 2 2 2 2 2 1 2
11 11 10 9 9 9 9 9 9 8 8 9 9 8 7 7 7 7 7 7 7 7 6 6 6 6 5 5 4 4 4 4 4 4 3 2 2 3 2 2 2 2 2
12 11 11 10 9 8 8 8 7 7 7 8 8 7 7 7 7 6 6 7 6 6 6 6 6 6 5 7 7 5 4 4 4 4 4 3 3 5 6 6 5 3 3
12 11 10 9 8 7 7 7 6 6 7 7 6 6 6 7 6 6 6 6 5 4 5 5 5 5 6 9 8 7 4 4 3 3 3 3 3 5 5 7 7 5 5
12 10 8 8 7 7 6 6 6 6 7 6 6 5 6 6 5 5 5 4 3 3 3 3 4 4 6 8 7 6 4 3 3 3 3 3 5 5 6 6 7 6 5
11 9 8 7 7 7 7 7 6 6 6 5 5 4 5 5 5 4 3 2 2 2 2 3 3 4 5 8 7 5 3 3 4 4 4 4 5 7 8 5 6 7 6
10 8 8 8 7 6 7 7 6 5 5 4 4 4 4 4 4 3 2 2 2 2 3 3 3 3 4 7 8 6 3 4 4 4 4 5 7 9 7 3 3 6 6
10 9 8 7 6 6 7 7 5 4 3 4 4 4 4 4 3 2 2 2 3 4 3 4 3 3 4 6 8 7 3 3 4 4 5 5 10 10 8 4 2 5 7
10 9 8 6 5 6 7 7 5 3 4 5 5 4 3 2 3 4 3 4 4 4 3 3 3 2 3 5 6 8 6 4 3 3 4 6 10 9 8 5 5 5 4
9 7 8 7 5 5 6 7 4 4 5 5 5 4 4 4 3 3 4 3 3 3 2 2 2 2 3 4 6 7 8 7 3 3 6 7 8 7 6 8 9 6 4
8 7 8 8 5 4 5 5 5 5 6 5 4 3 4 3 3 3 2 3 2 2 2 1 1 2 2 3 5 5 5 6 4 4 5 6 6 6 6 6 6 5 4
6 6 7 7 6 5 5 5 5 6 5 4 3 3 3 3 3 3 2 2 1 1 1 1 1 1 2 4 6 5 4 4 3 3 3 5 5 6 6 6 6 5 6
7 7 7 7 6 5 5 4 4 5 5 4 3 2 2 2 2 2 2 2 1 0 2 3 2 2 4 6 7 6 6 6 4 3 4 4 4 5 5 5 6 5 6
Wind_Direction
55 56 57 86 105 105 107 114 110 113 119 123 127 132 125 108 94 83 83 87 93 96 104 107 95 91 93 92 100 103 93 76 73 94 72 48 48 47 37 34 36 34 32
51 54 62 72 79 88 92 93 97 107 110 109 111 106 103 95 92 86 74 69 74 74 80 83 81 75 82 72 61 83 110 78 39 106 134 129 37 45 37 39 41 34 31
56 54 57 66 75 74 80 96 98 101 104 110 110 109 99 86 75 76 70 60 67 72 76 78 79 73 73 71 57 56 99 114 60 39 106 170 194 121 49 44 42 37 36
53 52 50 52 57 61 64 75 80 88 97 105 118 126 128 122 98 90 84 66 60 65 68 70 72 70 67 67 59 54 60 93 95 59 41 48 63 133 123 59 43 44 40
53 53 49 47 48 50 55 61 71 75 83 91 100 109 114 111 106 97 88 77 63 61 65 67 69 68 66 66 65 64 62 62 69 64 45 45 45 44 96 88 34 40 34
56 54 48 46 46 44 47 52 65 67 70 79 89 109 116 115 110 103 93 82 73 65 64 67 69 70 68 66 66 67 68 68 69 64 55 51 49 38 59 86 55 34 20
59 54 49 45 44 43 45 48 65 64 65 73 73 85 101 104 105 104 98 93 84 74 67 71 71 71 69 68 70 71 68 65 69 67 63 58 50 36 47 82 80 51 14
64 59 52 51 50 48 50 55 65 66 65 73 76 77 82 88 89 89 92 89 86 80 76 75 73 71 70 70 70 71 70 68 68 67 64 61 46 41 44 61 91 73 28
73 66 57 53 54 54 52 57 66 68 67 74 77 74 76 82 85 85 85 85 84 84 77 76 73 68 66 67 70 72 70 69 66 65 64 61 48 45 43 46 51 94 71
83 74 67 61 59 59 61 62 66 70 69 71 78 81 79 81 83 83 83 82 80 80 78 73 70 68 65 66 70 70 69 72 65 66 66 59 48 47 43 45 47 52 91
92 82 76 71 69 65 65 68 69 72 73 75 79 81 80 81 82 81 80 80 78 76 75 73 72 68 64 63 69 67 66 68 62 58 65 60 54 53 43 43 46 44 48
97 91 85 79 73 71 71 73 74 77 78 81 83 84 84 83 83 81 79 80 78 73 74 73 71 68 63 61 66 68 64 67 65 59 62 55 59 55 45 46 43 37 33
105 97 89 86 83 81 80 79 78 80 81 83 85 85 84 83 83 82 80 80 80 75 71 70 69 64 60 60 61 67 67 66 65 62 65 59 61 50 35 38 34 19 22
112 106 98 92 90 88 87 86 83 82 84 84 84 83 82 83 84 84 82 80 80 78 73 70 67 63 58 56 56 62 61 57 52 51 55 56 62 47 14 10 0 350 355
118 115 110 105 100 96 92 91 90 87 90 91 87 84 83 83 84 83 82 81 79 78 74 70 61 52 51 47 57 58 59 52 45 38 28 17 41 38 13 355 335 327 324
126 123 119 117 114 111 107 100 96 95 95 94 93 91 88 84 83 84 84 83 78 72 69 65 62 51 44 44 60 72 61 52 43 25 4 352 21 11 7 358 348 319 284
132 130 127 124 122 119 116 109 104 100 96 95 96 96 94 89 86 91 87 85 80 76 74 67 64 54 35 42 50 60 64 51 37 22 3 351 353 357 347 343 346 335 302
133 131 126 120 115 113 109 107 105 102 99 96 96 100 101 97 92 89 87 84 84 83 79 72 64 55 36 38 46 51 50 43 25 8 352 338 334 344 344 338 338 331 317
131 128 124 121 118 117 116 111 106 105 105 105 104 107 109 105 98 93 88 85 93 86 82 82 69 55 27 27 39 44 27 20 6 356 352 346 337 333 342 341 334 330 328
123 122 119 118 118 121 119 113 114 114 117 120 114 107 106 106 102 100 94 91 104 99 94 78 62 54 30 21 31 35 23 11 354 344 345 350 343 335 339 331 324 325 323
124 124 124 126 131 130 122 119 121 128 132 118 105 97 98 102 102 90 77 90 94 89 78 71 50 42 29 21 25 26 26 1 342 342 342 339 339 343 350 346 290 286 298
127 128 126 124 127 130 127 127 135 138 124 114 102 93 91 94 97 91 79 78 90 87 69 56 39 20 10 10 3 7 9 360 337 330 327 324 335 350 6 13 357 345 342
129 128 129 126 125 131 133 135 144 133 122 112 104 95 82 71 77 92 94 81 79 84 70 54 27 350 346 346 353 357 357 357 349 317 321 337 357 11 19 18 18 20 15
127 127 127 127 127 130 134 136 136 128 120 117 111 103 93 81 69 72 83 92 91 87 80 64 29 345 338 348 350 348 349 353 355 346 344 1 22 30 21 15 17 18 10
121 125 128 129 130 128 125 128 129 126 121 120 118 108 102 103 89 75 72 93 112 173 156 166 181 351 341 325 331 336 337 335 333 343 12 22 17 16 11 6 4 4 6
124 124 126 130 132 130 129 132 137 135 130 125 127 130 128 122 117 105 62 41 61 49 187 200 206 252 268 303 331 352 4 12 29 58 42 26 18 12 4 357 352 354 359